Current Version              Previous Version:    01  02  03  04  05  06  07  08  09  10  11  12  13  14  15  16  17  18  19  20  21  22  23  24  25  26  27  28  29  30  
   31  32  33  34  35  36  37  38  39  40  41  42  43  44  45  46  47  48  49  50  51  52  53  54  55  56  57  58  59  60  

[Printable]
481
ASUS44 KFWD 160910
RWRTX
NORTH TEXAS HOURLY WEATHER ROUNDUP
NATIONAL WEATHER SERVICE FORT WORTH TX
400 AM CDT WED APR 16 2014

NOTE: "FAIR" INDICATES FEW OR NO CLOUDS BELOW 12,000 FEET WITH NO
SIGNIFICANT WEATHER AND/OR OBSTRUCTIONS TO VISIBILITY.

TXZ118-119-161000-
DALLAS/FORT WORTH METROPLEX

CITY           SKY/WX    TMP DP  RH WIND       PRES   REMARKS
DFW AIRPORT    MOCLDY    46  30  53 SE8       30.06F
DALLAS LOVE    MOCLDY    48  29  47 SE12      30.09F
FTW MEACHAM    CLEAR     45  32  60 SE9       30.06F
DAL-EXECUTIVE  CLEAR     44  31  60 SE8       30.08F WCI  39
FTW-ALLIANCE   PTCLDY    42  31  64 SE5       30.06F WCI  39
FTW-NAS-JRB    CLEAR     51  27  39 SE7       30.11F
FTW-SPINKS     CLEAR     42  31  67 S5        30.09F WCI  39
ARLINGTON      CLEAR     42  31  64 SE7       30.07F WCI  38
GRAND PRAIRIE  CLEAR     46  30  53 SE6       30.10F
ADDISON        PTCLDY    49  29  46 SE12      30.09F
MESQUITE       CLEAR     40  35  83 SE5       30.10F WCI  37
LANCASTER      CLEAR     37  32  82 CALM      30.11F
$$

TXZ091>094-102>105-117-120-121-131>134-161000-
NORTH CENTRAL TEXAS

CITY           SKY/WX    TMP DP  RH WIND       PRES   REMARKS
SHRMAN/DENISON PTCLDY    47  29  50 SE13      30.08R
GAINESVILLE    MOCLDY    41  33  72 S6        30.09R WCI  37
BOWIE          MOCLDY    46  31  57 SE8       30.05S
BRIDGEPORT     PTCLDY    47  26  43 S6        30.07R
DECATUR        PTCLDY    45  30  55 SE8       30.06R
DENTON         PTCLDY    42  32  67 SE7       30.07F WCI  38
MCKINNEY       PTCLDY    41  34  76 SE7       30.08F WCI  36
GREENVILLE     CLEAR     41  32  70 SE6       30.11S WCI  37
ROCKWALL       CLEAR     44  32  62 E7        30.09S
TERRELL        CLEAR     43  33  68 E3        30.12S
WAXAHACHIE     CLEAR     40  31  67 SE6       30.10F WCI  36
CLEBURNE       CLEAR     43  32  65 S8        30.10S WCI  38
GRANBURY       CLEAR     45  32  58 SE7       30.08S
$$

TXZ083>090-098>101-113>116-127>130-139>142-154-155-161000-
WESTERN NORTH TEXAS

CITY           SKY/WX    TMP DP  RH WIND       PRES   REMARKS
WICHITA FALLS  CLOUDY    48  26  42 S16       29.99F
WF-KICKAPOO    CLOUDY    49  26  40 SE14      30.02S
VERNON         MOCLDY    51  21  30 S12       29.97R
ABILENE        PTCLDY    50  20  30 S15G23    29.96F
ABILENE-DYESS  PTCLDY    51  19  27 S15G23    29.94F
BRECKENRIDGE   PTCLDY    49  25  38 S13       30.01S
GRAHAM         PTCLDY    47  28  47 SE6       30.01S
MINERAL WELLS  PTCLDY    42  30  62 SE12      30.04S WCI  36
STEPHENVILLE   CLEAR     41  30  64 SE5       30.09R WCI  38
COMANCHE       CLEAR     45  27  50 S12       30.04F WCI  39
BROWNWOOD      PTCLDY    45  27  49 SE10      30.04F WCI  39
COLEMAN        CLEAR     42  26  53 S5        30.02F WCI  39
BRADY            N/A     41  21  45 SE7       30.02F WCI  36
$$

TXZ143>147-156>162-174-175-161000-
CENTRAL TEXAS

CITY           SKY/WX    TMP DP  RH WIND       PRES   REMARKS
WACO           CLEAR     48  32  53 S14       30.11S
WACO-MCGREGOR  CLEAR     37  28  70 S8        30.12S WCI  31
HILLSBORO      CLEAR     46  30  55 SE10      30.10S
CORSICANA      CLEAR     44  33  65 SE7       30.13S
MEXIA          CLEAR     40  34  79 S3        30.12R
HEARNE         CLEAR     37  35  90 CALM      30.15R
CAMERON        CLEAR     47  33  58 S7        30.13S
TEMPLE         CLEAR     39  28  65 S7          N/A  WCI  34
KILLEEN        CLEAR     41  28  60 SE6       30.09F WCI  37
KILLEEN-SKYLRK CLEAR     45  28  53 S6        30.09S
FORT HOOD      CLEAR     46  30  53 SE5       30.10S
GATESVILLE     CLEAR     41  32  70 CALM      30.12S
HAMILTON       CLEAR     42  29  61 S10       30.08S WCI  36
LAMPASAS       CLEAR     42  30  62 CALM      30.08S
$$

TXZ095>097-106>112-122>126-135>138-148>153-164>167-161000-
EAST TEXAS

CITY           SKY/WX    TMP DP  RH WIND       PRES   REMARKS
PARIS          CLEAR     41  32  70 SE10      30.13S WCI  35
SULPHUR SPRNGS CLEAR     46  30  53 SE8       30.15S
CLARKSVILLE    CLEAR     42  34  72 CALM      30.14S
MOUNT PLEASANT CLEAR     38  37  95 SE3       30.16S
GILMER         CLEAR     39  36  87 CALM      30.17R
MINEOLA        CLEAR     37  36  93 CALM      30.15S
TYLER          CLEAR     41  32  70 SE7       30.14R WCI  36
LONGVIEW       CLEAR     41  34  76 E5        30.15R WCI  38
MARSHALL       CLEAR     43  35  74 SE3       30.19R
ATHENS         CLEAR     34  32  93 CALM      30.14R
PALESTINE      CLEAR     45  32  60 E5        30.17R
JACKSONVILLE   CLEAR     42  31  63 S5        30.16R WCI  40
HENDERSON      CLEAR     36  33  92 CALM      30.16R
NACOGDOCHES    CLEAR     34  28  80 CALM      30.17R
LUFKIN         CLEAR     40  35  83 CALM      30.17R
$$

SUPPLEMENTAL OBSERVATIONS (CENTRAL)

CITY           SKY/WX    TMP DP  RH WIND       PRES   REMARKS
PAT MAYSE LAKE   N/A     46  32  57 SE13        N/A
PALESTINE        N/A     36  32  87 CALM        N/A
MCGREGOR         N/A     43  32  65 S7          N/A  WCI  39
TEMPLE           N/A     43  32  65 S2          N/A
$$

SUPPLEMENTAL OBSERVATIONS (WEST)

CITY           SKY/WX    TMP DP  RH WIND       PRES   REMARKS
MILLERS CREEK    N/A     48  23  37 S13         N/A
POSSUM KINGDOM   N/A     46  27  46 SE8G16      N/A
GRANBURY         N/A     46  32  57 SE7         N/A
HAMBY            N/A     48  21  34 S14         N/A
IVIE RESERVOIR   N/A     43  23  45 SE7         N/A  WCI  39
COLORADO BEND    N/A     45  28  53 S8          N/A
$$

SUPPLEMENTAL OBSERVATIONS (EAST)

CITY           SKY/WX    TMP DP  RH WIND       PRES   REMARKS
CLARKSVILLE      N/A     41  32  70 SE5         N/A  WCI  38
TEXARKANA        N/A     37  34  87 SE1         N/A
LINDEN           N/A     39  36  87 E1          N/A
GILMER           N/A     36  32  87 CALM        N/A
HENDERSON        N/A     36  32  87 SE1         N/A
LUFKIN           N/A     37  36  93 MISG        N/A
S SABINE NF      N/A     43  37  81 W2          N/A
$$

SUPPLEMENTAL OBSERVATIONS ARE A COLLECTION OF AUTOMATED INSTRUMENTS
THAT ARE MAINTAINED BY A VARIETY OF FEDERAL AND STATE AGENCIES.
CERTAIN ELEMENTS...SUCH AS HUMIDITY VALUES AND SUSTAINED WIND
SPEEDS...MAY BE APPROXIMATED.